Home | Tutorials | Wiki | Issues
Ask Your Question

chapulina's profile - karma

chapulina's karma change log

10 0 Only one model plugin receiving subscription data ( 2018-05-24 07:51:32 -0500 )

15 0 Only one model plugin receiving subscription data ( 2018-05-24 07:31:49 -0500 )

15 0 How Gazebo generate heigthmaps? ( 2018-05-24 02:52:46 -0500 )

15 0 Is there any .world library ? ( 2018-04-20 05:54:47 -0500 )

10 0 WorldPlugin. Process has died. Exit code 134 ( 2018-04-20 05:46:00 -0500 )

0 -10 WorldPlugin. Process has died. Exit code 134 ( 2018-04-20 05:45:58 -0500 )

10 0 WorldPlugin. Process has died. Exit code 134 ( 2018-04-20 05:45:43 -0500 )

15 0 WorldPlugin. Process has died. Exit code 134 ( 2018-04-20 05:45:20 -0500 )

10 0 Change view to what the camera is viewing ( 2018-04-20 03:34:36 -0500 )

10 0 Model editor, Open existing model ( 2018-04-16 12:17:57 -0500 )

15 0 Model editor, Open existing model ( 2018-04-15 13:05:27 -0500 )

0 -15 gazebo shadow with transparent texture ( 2018-04-12 10:32:14 -0500 )

15 0 gazebo shadow with transparent texture ( 2018-04-12 10:32:12 -0500 )

0 -15 Change (display) representation of orientation of model. ( 2018-04-10 16:47:36 -0500 )

15 0 Change (display) representation of orientation of model. ( 2018-04-10 16:47:35 -0500 )

10 0 Object rotates while grabbed by the gripper, tryint to lift it results in slip out. ( 2018-04-04 08:11:52 -0500 )

10 0 Can't find the declaration of variable 'this->' ? ( 2018-02-27 13:30:31 -0500 )

15 0 how can I reset the robot to the same situations in the beginning of each running? ( 2018-02-27 03:28:42 -0500 )

0 -15 how can I reset the robot to the same situations in the beginning of each running? ( 2018-02-27 03:28:42 -0500 )

15 0 how can I reset the robot to the same situations in the beginning of each running? ( 2018-02-27 03:28:41 -0500 )

0 -10 Can't find the declaration of variable 'this->' ? ( 2018-02-26 22:00:06 -0500 )

10 0 Can't find the declaration of variable 'this->' ? ( 2018-02-26 22:00:05 -0500 )

15 0 Can't find the declaration of variable 'this->' ? ( 2018-02-26 21:59:57 -0500 )

10 0 apply force/torque for a period of time ( 2018-02-26 14:20:44 -0500 )

15 0 where is the direction for the orientation of component? ( 2018-02-25 09:18:46 -0500 )

10 0 How to make a simple straight road in gazebo? ( 2018-02-22 08:25:55 -0500 )

10 0 show reference frames ( 2018-02-21 08:48:44 -0500 )

10 0 Drop shadow not according to lightsources ( 2018-02-21 03:46:13 -0500 )

15 0 Drop shadow not according to lightsources ( 2018-02-21 03:46:11 -0500 )

15 0 stable gazebo version and best gazebo version? ( 2018-02-19 09:03:13 -0500 )

10 0 stable gazebo version and best gazebo version? ( 2018-02-19 09:03:11 -0500 )

15 0 no GetAngles() member in JointState Class in Gazeo Api 9? ( 2018-02-19 08:59:25 -0500 )

0 -10 no GetAngles() member in JointState Class in Gazeo Api 9? ( 2018-02-19 08:59:23 -0500 )

10 0 no GetAngles() member in JointState Class in Gazeo Api 9? ( 2018-02-19 08:59:17 -0500 )

10 0 Can actors be detected by lasser sensor? ( 2018-02-15 02:18:29 -0500 )

0 -15 Can actors be detected by lasser sensor? ( 2018-02-07 05:32:05 -0500 )

15 0 Can actors be detected by lasser sensor? ( 2018-02-07 05:32:03 -0500 )

0 -15 Can actors be detected by lasser sensor? ( 2018-02-07 05:32:02 -0500 )

15 0 Can actors be detected by lasser sensor? ( 2018-02-07 05:32:00 -0500 )

0 -15 Can actors be detected by lasser sensor? ( 2018-02-07 05:31:59 -0500 )

15 0 Can actors be detected by lasser sensor? ( 2018-02-07 05:31:57 -0500 )

0 -10 Can actors be detected by lasser sensor? ( 2018-02-07 05:31:56 -0500 )

10 0 Can actors be detected by lasser sensor? ( 2018-02-07 05:31:54 -0500 )

10 0 How to change light intensity using a plugin ( 2018-02-06 08:56:23 -0500 )

15 0 How to change light intensity using a plugin ( 2018-02-06 08:55:35 -0500 )

10 0 Can't get my URDF RC Car to work properly. Always Explodes!! ( 2018-02-01 08:58:25 -0500 )

0 -15 How to change light intensity using a plugin ( 2018-02-01 08:16:02 -0500 )

15 0 How to change light intensity using a plugin ( 2018-02-01 08:15:55 -0500 )

0 -15 Using a gui-overlay plugin to choose GAZEBO_MASTER_URI for a gzclient. ( 2018-01-17 11:50:39 -0500 )

15 0 Using a gui-overlay plugin to choose GAZEBO_MASTER_URI for a gzclient. ( 2018-01-17 11:50:37 -0500 )

0 -15 Using a gui-overlay plugin to choose GAZEBO_MASTER_URI for a gzclient. ( 2018-01-17 11:50:34 -0500 )

15 0 Using a gui-overlay plugin to choose GAZEBO_MASTER_URI for a gzclient. ( 2018-01-17 11:50:34 -0500 )

0 -15 Using a gui-overlay plugin to choose GAZEBO_MASTER_URI for a gzclient. ( 2018-01-17 11:50:32 -0500 )

15 0 Using a gui-overlay plugin to choose GAZEBO_MASTER_URI for a gzclient. ( 2018-01-17 11:50:27 -0500 )

0 -15 Using a gui-overlay plugin to choose GAZEBO_MASTER_URI for a gzclient. ( 2018-01-17 11:50:26 -0500 )

15 0 Using a gui-overlay plugin to choose GAZEBO_MASTER_URI for a gzclient. ( 2018-01-17 11:50:25 -0500 )

0 -15 Using a gui-overlay plugin to choose GAZEBO_MASTER_URI for a gzclient. ( 2018-01-17 11:50:23 -0500 )

15 0 Using a gui-overlay plugin to choose GAZEBO_MASTER_URI for a gzclient. ( 2018-01-17 11:50:23 -0500 )

0 -15 Using a gui-overlay plugin to choose GAZEBO_MASTER_URI for a gzclient. ( 2018-01-17 11:50:22 -0500 )

15 0 Using a gui-overlay plugin to choose GAZEBO_MASTER_URI for a gzclient. ( 2018-01-17 11:50:21 -0500 )

0 -15 Using a gui-overlay plugin to choose GAZEBO_MASTER_URI for a gzclient. ( 2018-01-17 11:50:21 -0500 )

15 0 Using a gui-overlay plugin to choose GAZEBO_MASTER_URI for a gzclient. ( 2018-01-17 11:50:20 -0500 )

10 0 Using a gui-overlay plugin to choose GAZEBO_MASTER_URI for a gzclient. ( 2018-01-17 11:45:47 -0500 )

10 0 Controlling gazebo using ros ( 2018-01-15 08:56:00 -0500 )

15 0 Animated Human model (actor) ROS Kinetic, gazebo7 ( 2018-01-11 04:22:44 -0500 )

0 -15 Animated Human model (actor) ROS Kinetic, gazebo7 ( 2018-01-11 04:22:41 -0500 )

15 0 Animated Human model (actor) ROS Kinetic, gazebo7 ( 2018-01-11 04:22:38 -0500 )

10 0 Robot doesn't fall straight ( 2018-01-06 01:35:54 -0500 )

15 0 Robot doesn't fall straight ( 2018-01-06 01:35:50 -0500 )

0 -15 Robot doesn't fall straight ( 2018-01-06 01:35:44 -0500 )

15 0 Robot doesn't fall straight ( 2018-01-06 01:35:44 -0500 )

15 0 how to add constant force to a link ( 2017-12-26 11:47:58 -0500 )

10 0 Gazebo 7, Ambulance model (and other) Invalid mesh filename extension crash ( 2017-12-22 02:39:29 -0500 )

15 0 Movement of smaller links affecting the whole body ( 2017-12-15 08:50:34 -0500 )

10 0 Movement of smaller links affecting the whole body ( 2017-12-15 08:50:34 -0500 )

15 0 Problem with making a floating gripper in Gazebo ( 2017-12-14 03:50:49 -0500 )

10 0 Problem with making a floating gripper in Gazebo ( 2017-12-14 03:50:48 -0500 )

10 0 Can gazebo users use some model plugins at the same time? ( 2017-12-13 09:57:23 -0500 )

15 0 Gazebo simulation stopping after some time while using reinforced learning ( 2017-12-12 06:39:59 -0500 )

10 0 Gazebo simulation stopping after some time while using reinforced learning ( 2017-12-12 06:39:58 -0500 )

15 0 Problems with catkin_make after installing from source ( 2017-12-12 06:39:11 -0500 )

10 0 Problems with catkin_make after installing from source ( 2017-12-12 06:39:10 -0500 )

0 -10 Problems with catkin_make after installing from source ( 2017-12-08 09:06:46 -0500 )

0 -15 Problems with catkin_make after installing from source ( 2017-12-08 09:06:45 -0500 )

10 0 Problems with catkin_make after installing from source ( 2017-12-08 09:06:45 -0500 )

0 -10 Problems with catkin_make after installing from source ( 2017-12-08 09:06:44 -0500 )

15 0 Problems with catkin_make after installing from source ( 2017-12-08 09:06:43 -0500 )

10 0 Problems with catkin_make after installing from source ( 2017-12-08 09:06:43 -0500 )

2 0 Parallel Physics - Real Time factor ( 2017-12-07 15:16:02 -0500 )

15 0 Gazebo 7, Ambulance model (and other) Invalid mesh filename extension crash ( 2017-12-05 01:08:25 -0500 )

15 0 Gazebo - How to manually input coordinates of objects ( 2017-12-04 01:27:20 -0500 )

0 -15 Gazebo - How to manually input coordinates of objects ( 2017-12-04 01:27:18 -0500 )

15 0 Gazebo - How to manually input coordinates of objects ( 2017-12-04 01:27:14 -0500 )

10 0 Models of april tags (36h11 series) ( 2017-12-01 08:52:53 -0500 )

15 0 Is there a memory leak when changing visual color from model plugin? ( 2017-11-29 11:45:28 -0500 )

10 0 Blender model import STL and Dae problem with link names in model editor ( 2017-11-27 04:25:53 -0500 )

15 0 Logical camera refence frame affecting GUI reference frame ( 2017-11-22 07:18:06 -0500 )

10 0 How can I get a package of gazebo7 with a specific issue fixed? ( 2017-11-21 10:36:19 -0500 )

15 0 How can I get a package of gazebo7 with a specific issue fixed? ( 2017-11-21 10:36:17 -0500 )

15 0 how to get the states of other objects in model plugin ( 2017-11-20 18:39:50 -0500 )